Regional Weather Roundup
Issued by NWS

Home | Current Version | Previous Version | Graphics & Text | Print | Product List | Glossary On
Versions: 1 2 3 4 5 6 7 8 9 10 11 12 13 14 15 16 17 18 19 20 21 22 23 24 25 26 27 28 29 30 31 32 33 34 35 36 37 38 39 40 41 42 43 44 45 46 47 48 49 50
236
ASUS44 KJAN 030703
RWRMS

MISSISSIPPI HOURLY WEATHER ROUNDUP
NATIONAL WEATHER SERVICE JACKSON MS
100 AM CST TUE MAR 03 2015

NOTE: "FAIR: INDICATES FEW OR NO CLOUDS BELOW 12,000 FEET WITH NO
SIGNIFICANT WEATHER AND/OR OBSTRUCTIONS TO VISIBILITY.

MSZ001>002-007>008-010>013-018>021-025>028-034>036-030800-
NORTHWEST MISSISSIPPI

CITY           SKY/WX    TMP DP  RH WIND       PRES   REMARKS
CLARKSDALE     CLOUDY    39  39 100 CALM      30.19F VSB 1/4
CLEVELAND      FOG       40  40 100 N3        30.18F VSB 1/2
GREENWOOD      CLOUDY    45  44  97 CALM      30.18F FOG
GREENVILLE     FOG       40  39  97 N5        30.17F VSB 1/2
OLIVE BRANCH   CLOUDY    39  39 100 CALM      30.19S VSB 3/4
OXFORD         FOG       41  41 100 SE5       30.19F VSB 3/4
TUNICA         FOG       37  36  93 CALM      30.20F VSB 1/2
$$

MSZ003>006-009-014>017-022>024-029>033-037>039-030800-
NORTHEAST MISSISSIPPI

CITY           SKY/WX    TMP DP  RH WIND       PRES   REMARKS
COLUMBUS AFB   CLOUDY    47  47 100 SE3       30.18F FOG
CORINTH        FOG       45  43  93 CALM      30.18F VSB 3/4
GOLDN TRIANGLE CLOUDY    46  45  93 SE3       30.17F
STARKVILLE     FOG       45  45 100 CALM      30.17F VSB 1
TUPELO         CLOUDY    45  43  93 CALM      30.19F FOG
$$

MSZ040-058-030800-
CENTRAL MISSISSIPPI

CITY           SKY/WX    TMP DP  RH WIND       PRES   REMARKS
JACKSON INTL   FOG       53  52  96 CALM      30.17F VSB 1
JACKSON HAWKNS FOG       51  50  96 CALM      30.17F VSB 3/4
MERIDIAN KEY   CLOUDY    52  51  97 CALM      30.19F FOG
MERIDIAN NAS   CLOUDY    51  50  96 CALM      30.19F FOG
VICKSBURG      CLOUDY    45  43  93 CALM      30.18F FOG
$$

MSZ059>079-030800-
SOUTH MISSISSIPPI

CITY           SKY/WX    TMP DP  RH WIND       PRES   REMARKS
BROOKHAVEN     CLOUDY    54  54 100 CALM      30.18F
HATTIESBURG    FOG       61  60  97 CALM      30.19F VSB 1/2
MCCOMB         FOG       61  61 100 CALM      30.16F VSB 3/4
NATCHEZ        CLOUDY    46  45  93 CALM      30.18F VSB 1
PINE BELT      CLOUDY    59  57  94 E3        30.19F VSB 1/2
$$

MSZ080>082-030800-
COASTAL MISSISSIPPI

CITY           SKY/WX    TMP DP  RH WIND       PRES   REMARKS
BILOXI         PTCLDY    64  64 100 S2        30.17F FOG
PASCAGOULA     FOG       63  63 100 SE5       30.18F VSB 1
GULFPORT       FOG       63  62  97 SE5       30.17F VSB 1/2
$$



USA.gov is the U.S. government's official web portal to all federal, state and local government web resources and services.